Weather History for Andalusia, AL

Change the Weather History Date:

Wednesday, December 18, 2013

  Actual Average (KCEW) Record (KCEW)
Temperature  
Mean Temperature 50 °F -  
Max Temperature 64 °F 60 °F 79 °F (2006)
Min Temperature 37 °F 33 °F 21 °F (1981)
Degree Days  
Heating Degree Days 14    
Moisture  
Dew Point 33 °F    
Average Humidity 62    
Maximum Humidity 89    
Minimum Humidity 25    
Precipitation  
Precipitation 0.00 in - - ()
Sea Level Pressure  
Sea Level Pressure 30.30 in    
Wind  
Wind Speed 3 mph (NE)    
Max Wind Speed 8 mph    
Max Gust Speed -    
Visibility 10 miles    
Events      
Averages and records for this station are not official NWS values.
T = Trace of Precipitation, MM = Missing Value Source: NWS Daily Summary

Daily Weather History Graph

Daily Weather History Graph

Search for Another Location

Airport:

Trip Planner

Search our weather history database for the weather conditions in past years. The results will help you decide how hot, cold, wet, or windy it might be!

Date:

Astronomy

Dec. 18, 2013 Rise Set
Actual Time 6:38 AM CST 4:45 PM CST
Civil Twilight 6:12 AM CST 5:12 PM CST
Nautical Twilight 5:41 AM CST 5:42 PM CST
Astronomical Twilight 5:12 AM CST 6:12 PM CST
Moon 6:11 PM CST (12/18) 7:22 AM CST (12/18)
Length of Visible Light 11h 00m
Length of Day
10h 06m
Full, 98% of the Moon is Illuminated
Dec 18
Full
Dec 25
Last Quarter
Jan 1
New
Jan 7
First Quarter
Jan 15
Full

Hourly Weather History & Observations

Time (CST) Temp. Windchill Dew Point Humidity Pressure Visibility Wind Dir Wind Speed Gust Speed Precip Events Conditions
12:56 AM 39.9 °F 37.8 °F 35.1 °F 83% 30.26 in 10.0 mi NW 3.5 mph - N/A   Clear
1:56 AM 41.0 °F 39.0 °F 35.1 °F 79% 30.27 in 10.0 mi NNW 3.5 mph - N/A   Clear
2:56 AM 43.0 °F 40.3 °F 35.1 °F 74% 30.27 in 10.0 mi NNW 4.6 mph - N/A   Clear
3:56 AM 41.0 °F - 35.1 °F 79% 30.27 in 10.0 mi Calm Calm - N/A   Clear
4:56 AM 43.0 °F - 36.0 °F 76% 30.29 in 10.0 mi Calm Calm - N/A   Clear
5:56 AM 37.9 °F - 33.1 °F 83% 30.31 in 10.0 mi Calm Calm - N/A   Clear
6:56 AM 43.0 °F - 35.1 °F 74% 30.33 in 10.0 mi Calm Calm - N/A   Clear
7:56 AM 46.9 °F - 37.0 °F 68% 30.35 in 10.0 mi East 4.6 mph - N/A   Clear
8:56 AM 50.0 °F - 36.0 °F 59% 30.37 in 10.0 mi East 8.1 mph - N/A   Clear
9:56 AM 54.0 °F - 30.9 °F 41% 30.38 in 10.0 mi ESE 6.9 mph - N/A   Clear
10:56 AM 57.9 °F - 28.9 °F 33% 30.37 in 10.0 mi Variable 4.6 mph - N/A   Clear
11:56 AM 60.1 °F - 30.0 °F 32% 30.34 in 10.0 mi ENE 6.9 mph - N/A   Clear
12:56 PM 62.1 °F - 28.0 °F 28% 30.32 in 10.0 mi ENE 6.9 mph - N/A   Clear
1:56 PM 63.0 °F - 28.0 °F 27% 30.30 in 10.0 mi ENE 3.5 mph - N/A   Clear
2:56 PM 64.0 °F - 27.0 °F 25% 30.28 in 10.0 mi North 4.6 mph - N/A   Clear
3:56 PM 63.0 °F - 28.9 °F 28% 30.29 in 10.0 mi Calm Calm - N/A   Clear
4:56 PM 55.0 °F - 35.1 °F 47% 30.28 in 10.0 mi Calm Calm - N/A   Clear
5:56 PM 50.0 °F - 37.0 °F 61% 30.28 in 10.0 mi Calm Calm - N/A   Clear
6:56 PM 45.0 °F - 37.0 °F 74% 30.29 in 10.0 mi Calm Calm - N/A   Clear
7:56 PM 43.0 °F - 36.0 °F 76% 30.30 in 10.0 mi Calm Calm - N/A   Clear
8:56 PM 41.0 °F - 35.1 °F 79% 30.30 in 10.0 mi Calm Calm - N/A   Clear
9:56 PM 39.9 °F - 35.1 °F 83% 30.30 in 10.0 mi Calm Calm - N/A   Clear
10:56 PM 37.9 °F - 35.1 °F 89% 30.29 in 10.0 mi Calm Calm - N/A   Clear
11:56 PM 37.9 °F - 34.0 °F 86% 30.28 in 10.0 mi Calm Calm - N/A   Clear